This is the latest recevied weather packets stored in our database for station/object KC3VCX. If no packets are shown the sender has not sent any weather packets the latest 10 day(s).
| Time | Temp. | Humidity | Pressure | Rain* | Wind** | Luminosity | Snow |
|---|---|---|---|---|---|---|---|
| 1777944652 | 18.33° C | 59% | 1010.2 hPa | 0 mm | - | 0 W/m² | - |
| 1777944350 | 18.33° C | 59% | 1010 hPa | 0 mm | - | 0 W/m² | - |
| 1777944047 | 18.33° C | 60% | 1010.1 hPa | 0 mm | - | 0 W/m² | - |
| 1777943742 | 18.33° C | 60% | 1010 hPa | 0 mm | - | 0 W/m² | - |
| 1777943440 | 18.33° C | 59% | 1009.8 hPa | 0 mm | - | 0 W/m² | - |
| 1777943135 | 18.33° C | 59% | 1009.9 hPa | 0 mm | - | 0 W/m² | - |
| 1777942832 | 17.78° C | 61% | 1009.7 hPa | 0 mm | - | 0 W/m² | - |
| 1777942528 | 18.33° C | 60% | 1009.9 hPa | 0 mm | - | 0 W/m² | - |
| 1777942226 | 18.33° C | 61% | 1009.7 hPa | 0 mm | - | 0 W/m² | - |
| 1777941923 | 18.33° C | 60% | 1009.6 hPa | 0 mm | - | 0 W/m² | - |
| 1777941620 | 17.78° C | 59% | 1009.5 hPa | 0 mm | - | 0 W/m² | - |
| 1777941317 | 18.33° C | 62% | 1009.5 hPa | 0 mm | - | 0 W/m² | - |
| 1777941014 | 17.78° C | 61% | 1009.3 hPa | 0 mm | - | 0 W/m² | - |
| 1777940709 | 18.33° C | 59% | 1009.2 hPa | 0 mm | - | 1 W/m² | - |
| 1777940408 | 18.33° C | 61% | 1009.3 hPa | 0 mm | - | 2 W/m² | - |
| 1777940105 | 18.33° C | 61% | 1009.2 hPa | 0 mm | - | 3 W/m² | - |
| 1777939802 | 18.33° C | 61% | 1009.5 hPa | 0 mm | - | 6 W/m² | - |
| 1777939500 | 17.78° C | 65% | 1009.5 hPa | 0 mm | - | 9 W/m² | - |
| 1777939196 | 17.78° C | 62% | 1009.5 hPa | 0 mm | - | 14 W/m² | - |
| 1777938894 | 17.78° C | 65% | 1009.6 hPa | 0 mm | - | 19 W/m² | - |
| 1777938590 | 17.22° C | 68% | 1009.6 hPa | 0 mm | - | 27 W/m² | - |
| 1777938287 | 17.22° C | 74% | 1009.5 hPa | 0 mm | - | 31 W/m² | - |
| 1777937984 | 17.22° C | 70% | 1009.5 hPa | 0 mm | - | 31 W/m² | - |
| 1777937679 | 17.22° C | 70% | 1009.6 hPa | 0 mm | - | 32 W/m² | - |
| 1777937377 | 17.22° C | 69% | 1009.6 hPa | 0 mm | - | 40 W/m² | - |
* Rain latest hour (hover to see other rain measurements)
** Current wind speed in m/s (hover to see current wind gust speed)